Weather History for New Bern, NC

Change the Weather History Date:

Thursday, February 28, 2013

  Actual Average Record
Temperature  
Mean Temperature 48 °F 49 °F  
Max Temperature 56 °F 60 °F 88 °F (1962)
Min Temperature 40 °F 38 °F 20 °F (1963)
Degree Days  
Heating Degree Days 17 16  
Month to date heating degree days 482 475  
Since 1 July heating degree days 1926 2115  
Cooling Degree Days 0 0  
Month to date cooling degree days 0 0  
Year to date cooling degree days 7 1  
Moisture  
Dew Point 35 °F    
Average Humidity 64    
Maximum Humidity 86    
Minimum Humidity 41    
Precipitation  
Precipitation 0.00 in 0.14 in 2.42 in (1966)
Month to date precipitation 4.31 3.39  
Year to date precipitation 6.14 7.41  
Snow  
Snow 0.00 in - - ()
Month to date snowfall T  
Since 1 July snowfall T  
Snow Depth 0.00 in    
Sea Level Pressure  
Sea Level Pressure 29.77 in    
Wind  
Wind Speed 7 mph (West)    
Max Wind Speed 16 mph    
Max Gust Speed 23 mph    
Visibility 10 miles    
Events      
T = Trace of Precipitation, MM = Missing Value Source: NWS Daily Summary

Daily Weather History Graph

Daily Weather History Graph

Search for Another Location

Airport:

Trip Planner

Search our weather history database for the weather conditions in past years. The results will help you decide how hot, cold, wet, or windy it might be!

Date:

Astronomy

Feb. 28, 2013 Rise Set
Actual Time 6:38 AM EST 6:03 PM EST
Civil Twilight 6:13 AM EST 6:28 PM EST
Nautical Twilight 5:43 AM EST 6:58 PM EST
Astronomical Twilight 5:14 AM EST 7:27 PM EST
Moon 9:17 PM EST (2/28) 7:55 AM EST (2/28)
Length of Visible Light 12h 15m
Length of Day
11h 24m
Waning Gibbous, 91% of the Moon is Illuminated
Feb 28
Waning Gibbous
Mar 4
Last Quarter
Mar 11
New
Mar 19
First Quarter
Mar 27
Full

Hourly Weather History & Observations

Time (EST) Temp. Windchill Dew Point Humidity Pressure Visibility Wind Dir Wind Speed Gust Speed Precip Events Conditions
12:54 AM 46.9 °F - 41.0 °F 80% 29.75 in 10.0 mi SW 5.8 mph - N/A   Clear
1:54 AM 46.9 °F - 41.0 °F 80% 29.74 in 10.0 mi SW 5.8 mph - N/A   Clear
2:54 AM 48.9 °F - 41.0 °F 74% 29.73 in 10.0 mi WSW 8.1 mph - N/A   Clear
3:54 AM 48.0 °F - 39.9 °F 74% 29.72 in 10.0 mi WSW 10.4 mph - N/A   Clear
4:54 AM 46.9 °F - 39.9 °F 77% 29.74 in 10.0 mi WSW 6.9 mph - N/A   Clear
5:54 AM 45.0 °F 41.2 °F 39.0 °F 80% 29.75 in 10.0 mi WSW 6.9 mph - N/A   Clear
6:54 AM 44.1 °F 40.8 °F 39.0 °F 82% 29.76 in 10.0 mi WSW 5.8 mph - N/A   Clear
7:54 AM 46.9 °F - 39.9 °F 77% 29.78 in 10.0 mi West 5.8 mph - N/A   Clear
8:54 AM 50.0 °F - 39.9 °F 68% 29.78 in 10.0 mi West 5.8 mph - N/A   Overcast
9:54 AM 54.0 °F - 39.0 °F 57% 29.77 in 10.0 mi West 6.9 mph - N/A   Partly Cloudy
10:54 AM 54.0 °F - 36.0 °F 51% 29.76 in 10.0 mi WNW 9.2 mph - N/A   Scattered Clouds
11:54 AM 54.0 °F - 35.1 °F 49% 29.75 in 10.0 mi NNW 10.4 mph 17.3 mph N/A   Overcast
12:54 PM 52.0 °F - 33.1 °F 49% 29.73 in 10.0 mi NNW 12.7 mph 18.4 mph N/A   Overcast
1:54 PM 53.1 °F - 30.9 °F 43% 29.73 in 10.0 mi NW 12.7 mph - N/A   Overcast
2:54 PM 52.0 °F - 30.9 °F 45% 29.73 in 10.0 mi NNW 11.5 mph 19.6 mph N/A   Overcast
3:54 PM 53.1 °F - 30.0 °F 41% 29.74 in 10.0 mi WNW 13.8 mph 19.6 mph N/A   Overcast
4:54 PM 52.0 °F - 30.9 °F 45% 29.75 in 10.0 mi WNW 9.2 mph - N/A   Overcast
5:54 PM 50.0 °F - 30.9 °F 48% 29.78 in 10.0 mi WNW 6.9 mph - N/A   Overcast
6:54 PM 48.9 °F - 32.0 °F 52% 29.80 in 10.0 mi West 4.6 mph - N/A   Overcast
7:54 PM 46.0 °F 43.9 °F 32.0 °F 58% 29.81 in 10.0 mi West 4.6 mph - N/A   Scattered Clouds
8:54 PM 44.1 °F - 30.9 °F 60% 29.83 in 10.0 mi Calm Calm - N/A   Clear
9:54 PM 42.1 °F 40.2 °F 32.0 °F 67% 29.83 in 10.0 mi SW 3.5 mph - N/A   Clear
10:54 PM 41.0 °F 38.0 °F 30.9 °F 67% 29.84 in 10.0 mi West 4.6 mph - N/A   Clear
11:54 PM 41.0 °F 37.1 °F 30.0 °F 65% 29.85 in 10.0 mi WNW 5.8 mph - N/A   Clear